Other Surface Observations
Issued by NWS

Home | Current Version | Previous Version | Text Only | Print | Product List | Glossary On
Versions: 1 2 3 4 5 6 7 8 9 10 11 12 13 14 15 16 17 18 19 20 21 22 23 24 25 26 27 28 29 30 31 32 33 34 35 36 37 38 39 40 41 42 43 44 45 46 47 48 49 50
000
SXUS52 KTAE 200418
OSOTAE
OSOTAE
North Florida/South Alabama/Southwest Georgia Weather Roundup
National Weather Service Tallahassee Florida
1200 AM EDT WED AUG 20 2014

Note: "fair" indicates few or no clouds below 12,000 feet with no
significant weather and/or obstructions to visibility.

!FLZ017-115-028-034-025-200500
...North Florida...

CITY           SKY/WX    TMP DP  RH WIND       PRES   REMARKS
TALLAHASSEE    PTCLDY    76  72  87 CALM      30.02R
APALACHICOLA   CLEAR     84  77  79 W8        30.00S HX  94
PERRY          CLEAR     79  75  89 W6        30.02R
CROSS CITY       N/A     78  75  90 SW3       30.01R
HOMERVILLE     FAIR      77  73  88 W6        30.00R
JACKSONVILLE   CLEAR     74  71  91 CALM      29.99R
$$

!FLZ112-006-005-002-011-200500
...Florida Panhandle...

CITY           SKY/WX    TMP DP  RH WIND       PRES   REMARKS
MARIANNA       MOCLDY    73  73 100 S6        29.99F
BONIFAY        FAIR      74  73  97 S5        29.99F
PANAMA CITY NW FAIR      80  75  84 CALM      29.99F
TYNDALL AFB    CLEAR     84  77  80 W13       30.01S HX  93
TYND DRONE APT NOT AVBL
DE FUNIAK SPR  FAIR      72  70  95 W3        30.01F
EGLIN AFB      PTCLDY    78  71  79 NW6       29.99F
DESTIN         LGT RAIN  82  73  74 CALM      29.98F
HURLBURT       MOCLDY    75  69  82 NW5       29.98S
CRESTVIEW      LGT RAIN  75  71  87 W6        30.01F
PENSACOLA      PTCLDY    73  68  84 W3        30.02F
$$

!ALZ063-066-200500
...South Alabama...

CITY           SKY/WX    TMP DP  RH WIND       PRES   REMARKS
DOTHAN         CLOUDY    75  72  90 SW5       30.03
OZARK CAIRNS   CLOUDY    75  72  91 W6        29.98F
FT RUCKER HELI CLOUDY    75  72  90 NW5       29.98F
RUCKER HELI 3  MOCLDY    73  71  92 VRB3      30.01F
RUCKER HELI 2  FAIR      74  72  93 NW5       29.98F
FLORALA APT    LGT RAIN  73  70  90 CALM      30.02F
ANDALUSIA      LGT RAIN  75  70  84 NW6       30.00F
TROY           CLOUDY    72  69  90 SW3       30.01F
EUFALA         FAIR      72  70  93 CALM      29.99R
MOBILE         PTCLDY    80  69  69 VRB3      30.05R
$$

!GAZ120>161-200500
...Southwest and South Central Georgia...

CITY           SKY/WX    TMP DP  RH WIND       PRES   REMARKS
THOMASVILLE    FAIR      77  73  88 W3        30.02R
BAINBRIDGE     CLOUDY    77  73  88 SW5       30.00S
MOODY AFB      MOCLDY    76  73  89 W2        29.99R
VALDOSTA       MOCLDY    76  73  91 S6        29.98S
MOULTRIE       CLOUDY    75  73  94 W7        30.02R
BLAKELY        CLOUDY    77  72  83 CALM        N/A
ALBANY         CLOUDY    73  72  96 CALM      30.02R
TIFTON         FAIR      74  73  93 CALM      30.00R
FITZGERALD     FAIR      75  72  91 W3        30.03R
CORDELE        FAIR      75  73  92 W3        30.01R
AMERICUS       FAIR      73  70  88 W6        30.02S
$$

!GMZ750-755-770-775-200500
...Coastal and Buoy Obs...

STATION/POSITION TIME  TEMP    WIND        PRES    VSBY  WAVE
                       AIR SEA DIR/SP/G                  HT/PER
                 (UTC) (F)     (DEG/KT/KT) (MB)    (MI)  (FT/S)
KEATON BEACH     0400   85     270/ 15/ 17 1016.5R
CEDAR KEY        0400   85     260/  9/ 11 1016.5R
C TOWER          0400   84     260/ 12/ 13 1016.4R
APALACHICOLA BUO 0400   85 87  230/  8/  8 1016.5R         1/ 4
PANAMA CITY BUOY 0350   86 88  270/  8/ 10 1016.9R         2/ 4
MOBILE BUOY      0301   86 88  210/  6/  8 1017.1R
ORANGE BCH AL BU 0400   81 85   30/ 12/ 14 1016.9R         2/ 4
$$



USA.gov is the U.S. government's official web portal to all federal, state and local government web resources and services.